[[{"header":{"parameterUnit":"m.s-1","parameterCategory":1,"la1":30.2992,"la2":30.254,"lo1":-89.0895,"lo2":-89.0443,"dy":0.0025,"dx":0.0025,"nx":19,"ny":19,"refTime":"2026-05-17T03:00:00:Z","depth":0,"parameterNumber":2,"parameterNumberName":"U-component_of_WINDS"},"data":[0,0,0,-2.0341,-2.034,-2.0278,-2.0277,-2.0214,-2.0214,0,0,0,0,0,0,0,0,0,0,0,-2.037,-2.037,-2.0341,-2.034,-2.0278,-2.0277,-2.0214,-2.0214,0,0,0,0,0,0,0,0,0,0,0,-2.037,-2.037,-2.037,-2.034,-2.0278,-2.0277,-2.0214,-2.0255,0,0,0,0,0,0,0,0,0,0,-2.0313,-2.035,-2.037,-2.037,-2.0339,-2.0278,-2.0277,-2.0257,-2.0253,-2.025,0,-2.025,0,-2.0231,-2.0211,-2.0211,0,0,0,-2.0332,-2.0353,-2.0327,-2.037,-2.0339,-2.0278,-2.0304,-2.0254,-2.025,-2.0244,-2.0249,-2.0246,-2.023,-2.021,-2.021,-2.0222,-2.0222,0,0,-2.0335,-2.0364,-2.0331,-2.0325,-2.0336,-2.0306,-2.0302,-2.0251,-2.0258,-2.0249,-2.0244,-2.0229,-2.021,-2.021,-2.0221,-2.0222,0,0,0,-2.0351,-2.0367,-2.0341,-2.0328,-2.0316,-2.0304,-2.0299,-2.026,-2.025,-2.0244,-2.0228,-2.021,-2.0209,-2.0221,-2.0221,-2.0271,0,0,0,-2.0352,-2.0376,-2.0343,-2.036,-2.0317,-2.0287,-2.031,-2.0253,-2.0247,-2.0229,-2.021,-2.0209,-2.022,-2.0221,-2.0269,-2.0289,0,0,0,-2.037,-2.0377,-2.0372,-2.0362,-2.0336,-2.0287,-2.0274,-2.0251,-2.0238,-2.0211,-2.0209,-2.022,-2.0221,-2.0266,-2.0286,-2.0301,0,0,0,-2.0398,-2.0416,-2.0374,-2.0388,-2.0337,-2.0319,-2.0274,-2.0258,-2.0241,-2.021,-2.022,-2.0221,-2.0266,-2.0283,-2.0299,-2.032,-2.0331,0,0,-2.0437,-2.0422,-2.0428,-2.0388,-2.0385,-2.0326,-2.033,-2.0286,-2.0257,-2.0235,-2.0235,-2.0269,-2.0285,-2.0301,-2.0385,-2.0394,0,0,0,-2.045,-2.0455,-2.0448,-2.0434,-2.0402,-2.0377,-2.0329,-2.0314,-2.0294,-2.0252,-2.0278,-2.0287,-2.0295,-2.0303,-2.0311,-2.0316,-2.0226,-2.0226,-2.0226,-2.0546,-2.0509,-2.0518,-2.0474,-2.0461,-2.0413,-2.0399,-2.0369,-2.0334,-2.0342,-2.0334,-2.039,-2.0401,-2.0406,-2.0412,-2.0342,-2.0343,-2.0343,-2.0343,-2.06,-2.0601,-2.0557,-2.055,-2.0511,-2.0504,-2.046,-2.0436,-2.0424,-2.0391,-2.0396,-2.0364,-2.0418,-2.0421,-2.0346,-2.0346,-2.0345,-2.0345,-2.0345,-2.0658,-2.0652,-2.0634,-2.0611,-2.0597,-2.0552,-2.0543,-2.0507,-2.0474,-2.0479,-2.0468,-2.0467,-2.0462,-2.0477,-2.0477,-2.0477,-2.0477,-2.0477,-2.0477,-2.0726,-2.0703,-2.0701,-2.067,-2.0657,-2.0636,-2.059,-2.0576,-2.0551,-2.0526,-2.0526,-2.0491,-2.043,-2.0416,-2.048,-2.048,-2.0479,-2.0479,-2.0479,-2.0794,-2.0773,-2.0769,-2.0756,-2.0719,-2.0708,-2.0664,-2.0639,-2.0622,-2.0619,-2.0584,-2.0545,-2.0526,-2.052,-2.0508,-2.0592,-2.0592,-2.0592,-2.0592,-2.0843,-2.0831,-2.0819,-2.0802,-2.078,-2.0741,-2.0738,-2.0703,-2.0664,-2.0652,-2.0634,-2.0615,-2.061,-2.0595,-2.0587,-2.0574,-2.0674,-2.0674,-2.0674,-2.0883,-2.0867,-2.0872,-2.0834,-2.0803,-2.0776,-2.0773,-2.0755,-2.0706,-2.0677,-2.0641,-2.0638,-2.0606,-2.0598,-2.0567,-2.0555,-2.0532,0,0]},{"header":{"parameterUnit":"m.s-1","parameterCategory":1,"la1":30.2992,"la2":30.254,"lo1":-89.0895,"lo2":-89.0443,"dy":0.0025,"dx":0.0025,"nx":19,"ny":19,"refTime":"2026-05-17T03:00:00:Z","depth":0,"parameterNumber":3,"parameterNumberName":"V-component_of_WINDS"},"data":[0,0,0,3.3748,3.3747,3.3678,3.3678,3.3584,3.3584,0,0,0,0,0,0,0,0,0,0,0,3.3768,3.3767,3.3749,3.3747,3.3678,3.3678,3.3584,3.3583,0,0,0,0,0,0,0,0,0,0,0,3.3768,3.3768,3.3767,3.3747,3.3678,3.3678,3.3585,3.3638,0,0,0,0,0,0,0,0,0,0,3.3706,3.3723,3.3768,3.3767,3.3746,3.3678,3.3678,3.3641,3.3635,3.3614,0,3.3598,0,3.359,3.3577,3.3577,0,0,0,3.3747,3.3728,3.3711,3.3767,3.3746,3.3678,3.3709,3.3637,3.3631,3.3606,3.3597,3.3593,3.3588,3.3577,3.3576,3.3466,3.3465,0,0,3.375,3.3754,3.3716,3.3707,3.372,3.3711,3.3707,3.3633,3.3622,3.3596,3.3591,3.3586,3.3576,3.3575,3.3466,3.3465,0,0,0,3.3762,3.3757,3.3742,3.371,3.3699,3.3709,3.3704,3.3625,3.362,3.359,3.3585,3.3575,3.3574,3.3467,3.3466,3.3446,0,0,0,3.3764,3.3764,3.3743,3.3745,3.37,3.3661,3.3698,3.3625,3.3617,3.3586,3.3575,3.3573,3.3467,3.3466,3.3448,3.3436,0,0,0,3.3773,3.3765,3.3755,3.3745,3.3716,3.3663,3.3653,3.3623,3.3614,3.3577,3.3573,3.3468,3.3466,3.345,3.3438,3.3409,0,0,0,3.3783,3.3736,3.3755,3.3701,3.3717,3.3652,3.3654,3.3604,3.357,3.3575,3.3467,3.3466,3.345,3.344,3.3411,3.3385,3.3375,0,0,3.3726,3.373,3.3698,3.3712,3.3646,3.3662,3.3592,3.3555,3.3546,3.3492,3.349,3.3448,3.3439,3.3409,3.3316,3.3309,0,0,0,3.3681,3.3659,3.364,3.361,3.3583,3.3558,3.3533,3.3519,3.3474,3.352,3.3429,3.3423,3.3406,3.3393,3.3386,3.3371,3.346,3.3461,3.3461,3.3607,3.3601,3.3548,3.3534,3.3504,3.3479,3.3454,3.3431,3.3431,3.341,3.3394,3.3338,3.3324,3.3319,3.3303,3.3379,3.3379,3.3379,3.3379,3.3524,3.3491,3.3495,3.3446,3.3439,3.3396,3.337,3.3372,3.333,3.335,3.3334,3.3356,3.331,3.3296,3.3378,3.3378,3.3378,3.3378,3.3378,3.3474,3.3458,3.3444,3.3401,3.3367,3.3353,3.3314,3.3308,3.3302,3.3287,3.327,3.327,3.3269,3.3279,3.3279,3.3279,3.3279,3.3278,3.3278,3.3429,3.3414,3.3383,3.3352,3.3333,3.3306,3.3281,3.3261,3.3236,3.3235,3.3235,3.3237,3.3308,3.3326,3.3275,3.3276,3.3276,3.3276,3.3277,3.3347,3.3365,3.3317,3.3298,3.3261,3.3229,3.3223,3.3182,3.3164,3.3145,3.3151,3.3204,3.3206,3.3211,3.3226,3.3153,3.3153,3.3153,3.3153,3.3306,3.3307,3.3258,3.3227,3.3196,3.3187,3.3131,3.3112,3.3093,3.3082,3.3092,3.3111,3.3116,3.3115,3.3122,3.3136,3.3041,3.3041,3.3041,3.3256,3.3254,3.3209,3.3195,3.3166,3.3141,3.3088,3.3051,3.3034,3.3037,3.3073,3.3077,3.3108,3.3118,3.3121,3.3133,3.3158,0,0]}]]